Location: Gleizolles
(44.4833°N, 6.7667°E)
Time: 20:53:57
(UTC+00:00)

A-11 Canister half - Pass Details

Date: 03 July 2024
Orbit: 1524 x 1684 km, 47.3° (Epoch: 18 July)

Event Time Altitude Azimuth Distance (km) Brightness Sun altitude
Rises 11:43:01 0° 267° (W) 4,779 11.6 68.4°
Reaches altitude 10° 11:46:10 10° 269° (W) 3,773 11.2 68.3°
Maximum altitude 11:55:43 76° 355° (N) 1,585 10.2 68.1°
Drops below altitude 10° 12:05:03 10° 82° (E) 3,693 11.0 67.7°
Sets 12:08:05 0° 84° (E) 4,672 11.4 67.5°
